CW5834 Weather Reports


time (UTC)temp
C
wind
direction
speed
KPH
gust
KPH
rain 1hr
cm
rain 24hr
cm
rain mn
cm
humidity
%
barometer
mb
20260902171017 32 338 3.2 8.0 0.00 0.00 0.00 64 1022.4
20260902170037 31 23 1.6 4.8 0.00 0.00 0.00 62 1022.5
20260902165017 32 315 1.6 4.8 0.00 0.00 0.00 61 1022.6
20260902164037 32 293 4.8 6.4 0.00 0.00 0.00 60 1022.7
20260902163017 32 315 1.6 3.2 0.00 0.00 0.00 61 1022.8
20260902162017 31 0.0 3.2 0.00 0.00 0.00 63 1023.0
20260902161017 31 0 1.6 4.8 0.00 0.00 0.00 64 1023.1
20260902160037 31 203 1.6 4.8 0.00 0.00 0.00 62 1023.0
20260902155016 31 45 1.6 4.8 0.00 0.00 0.00 67 1023.0
20260902154057 30 180 1.6 4.8 0.00 0.00 0.00 64 1023.0
20260902153017 30 203 1.6 6.4 0.00 0.00 0.00 63 1023.0
20260902152017 31 158 1.6 4.8 0.00 0.00 0.00 66 1023.0
20260902151037 30 90 1.6 3.2 0.00 0.00 0.00 72 1022.9
20260902150016 30 90 1.6 3.2 0.00 0.00 0.00 71 1022.8
20260902145017 29 248 1.6 3.2 0.00 0.00 0.00 73 1022.8
20260902144016 29 338 1.6 3.2 0.00 0.00 0.00 75 1022.7
20260902143016 28 0 1.6 3.2 0.00 0.00 0.00 75 1022.8
20260902142036 28 0.0 3.2 0.00 0.00 0.00 76 1022.6
20260902141016 28 45 1.6 3.2 0.00 0.00 0.00 79 1022.6
20260902140016 27 90 1.6 3.2 0.00 0.00 0.00 82 1022.6
20260902135016 26 0 1.6 3.2 0.00 0.00 0.00 83 1022.6
20260902134016 26 315 1.6 4.8 0.00 0.00 0.00 84 1022.6
20260902133016 26 135 1.6 3.2 0.00 0.00 0.00 84 1022.6
20260902132022 25 315 1.6 3.2 0.00 0.00 0.00 88 1022.7
20260902131016 25 0.0 3.2 0.00 0.00 0.00 88 1022.8
20260902130016 23 0.0 3.2 0.00 0.00 0.00 91 1022.6
20260902125016 23 113 1.6 3.2 0.00 0.00 0.00 92 1022.4
20260902124016 22 0.0 3.2 0.00 0.00 0.00 93 1022.5
20260902123016 22 0.0 3.2 0.00 0.00 0.00 94 1022.6
20260902122016 22 0.0 3.2 0.00 0.00 0.00 94 1022.5
20260902121016 21 0.0 3.2 0.00 0.00 0.00 96 1022.3
20260902120016 21 0.0 3.2 0.00 0.00 0.00 96 1022.3
20260902115036 20 0.0 3.2 0.00 0.00 0.00 95 1022.1
20260902114016 20 0.0 3.2 0.00 0.00 0.00 95 1022.1
20260902113016 20 0.0 1.6 0.00 0.00 0.00 95 1022.1
20260902112016 20 0.0 0.0 0.00 0.00 0.00 95 1021.8
20260902111016 20 0.0 3.2 0.00 0.00 0.00 95 1021.7
20260902110016 20 0.0 1.6 0.00 0.00 0.00 95 1021.7
20260902105036 20 0.0 3.2 0.00 0.00 0.00 95 1021.6
20260902104016 20 0.0 3.2 0.00 0.00 0.00 95 1021.6
20260902103016 20 0.0 0.0 0.00 0.00 0.00 95 1021.6
20260902102016 20 0.0 1.6 0.00 0.00 0.00 95 1021.5
20260902101016 20 0.0 3.2 0.00 0.00 0.00 94 1021.5
20260902100016 20 0.0 1.6 0.00 0.00 0.00 95 1021.3
20260902095016 21 0.0 3.2 0.00 0.00 0.00 95 1021.3
20260902094015 21 0.0 3.2 0.00 0.00 0.00 95 1021.2
20260902093016 21 0.0 1.6 0.00 0.00 0.00 95 1021.4
20260902092015 21 0.0 0.0 0.00 0.00 0.00 95 1021.2
20260902091016 21 0 1.6 3.2 0.00 0.00 0.00 95 1021.1
20260902090016 21 0.0 1.6 0.00 0.00 0.00 95 1021.2
20260902085015 21 0.0 1.6 0.00 0.00 0.00 94 1021.1
20260902084015 21 0 1.6 1.6 0.00 0.00 0.00 94 1021.0
20260902083015 21 0.0 3.2 0.00 0.00 0.00 94 1021.2
20260902082015 21 0.0 3.2 0.00 0.00 0.00 94 1021.1
20260902081016 21 0.0 3.2 0.00 0.00 0.00 94 1021.1
20260902080016 21 0.0 3.2 0.00 0.00 0.00 94 1021.1
20260902075036 21 0 1.6 1.6 0.00 0.00 0.00 94 1021.1
20260902074036 21 0.0 3.2 0.00 0.00 0.00 94 1021.0
20260902073015 21 23 1.6 1.6 0.00 0.00 0.00 94 1020.9
20260902072015 21 0.0 3.2 0.00 0.00 0.00 94 1021.1
20260902071015 21 0.0 3.2 0.00 0.00 0.00 93 1021.0
20260902070016 21 0.0 3.2 0.00 0.00 0.00 94 1020.9
20260902065017 21 0.0 1.6 0.00 0.00 0.00 93 1020.9
20260902064037 21 0.0 1.6 0.00 0.00 0.00 94 1020.9
20260902063037 21 0.0 3.2 0.00 0.00 0.00 93 1021.0
20260902062017 21 23 1.6 1.6 0.00 0.00 0.00 93 1021.1
20260902061037 21 0.0 0.0 0.00 0.00 0.00 93 1021.1
20260902060017 21 0.0 3.2 0.00 0.00 0.00 93 1021.1
20260902055017 21 0.0 0.0 0.00 0.00 0.00 93 1021.1
20260902054037 21 0.0 3.2 0.00 0.00 0.00 93 1021.2
20260902053017 21 0.0 3.2 0.00 0.00 0.00 93 1021.1
20260902052017 21 0.0 0.0 0.00 0.00 0.00 93 1021.1
20260902051017 21 0.0 0.0 0.00 0.00 0.00 93 1021.2
20260902050017 21 0.0 3.2 0.00 0.00 0.00 93 1021.2
20260902045017 21 0.0 3.2 0.00 0.00 0.00 93 1021.1
20260902044057 21 0.0 0.0 0.00 0.00 0.00 93 1021.1
20260902043017 21 0.0 3.2 0.00 0.00 0.00 93 1021.1
20260902042017 21 0.0 3.2 0.00 0.00 0.00 93 1021.1
20260902041017 21 0.0 3.2 0.00 0.00 0.00 93 1021.1
20260902040017 21 0.0 0.0 0.00 0.00 0.00 92 1021.1
20260902035016 22 0.0 1.6 0.00 0.00 0.00 92 1021.1
20260902034017 22 0.0 0.0 0.00 0.00 0.00 92 1021.1
20260902033036 22 0.0 3.2 0.00 0.00 0.00 92 1021.0
20260902032016 22 0.0 3.2 0.00 0.00 0.00 92 1021.1
20260902031036 22 0.0 0.0 0.00 0.00 0.00 92 1020.9
20260902030016 22 0.0 1.6 0.00 0.00 0.00 92 1020.9
20260902025016 22 0.0 0.0 0.00 0.00 0.00 93 1020.9
20260902024016 22 0.0 1.6 0.00 0.00 0.00 92 1021.0
20260902023016 22 0.0 0.0 0.00 0.00 0.00 92 1020.9
20260902022016 23 0.0 0.0 0.00 0.00 0.00 92 1020.9
20260902021016 23 0.0 0.0 0.00 0.00 0.00 92 1020.9
20260902020016 23 0.0 0.0 0.00 0.00 0.00 91 1020.8
20260902015016 23 0.0 0.0 0.00 0.00 0.00 91 1020.7
20260902014016 23 0.0 0.0 0.00 0.00 0.00 90 1020.7
20260902013016 23 0.0 3.2 0.00 0.00 0.00 90 1020.4
20260902012016 24 0.0 3.2 0.00 0.00 0.00 89 1020.4
20260902011016 24 0.0 0.0 0.00 0.00 0.00 89 1020.3
20260902010016 25 0.0 0.0 0.00 0.00 0.00 88 1020.2
20260902005016 25 0.0 3.2 0.00 0.00 0.00 87 1020.1
20260902004036 25 0.0 3.2 0.00 0.00 0.00 86 1020.0
20260902003016 25 0.0 0.0 0.00 0.00 0.00 85 1020.0
20260902002015 26 0.0 0.0 0.00 0.00 0.00 83 1020.1
20260902001016 26 0.0 1.6 0.00 0.00 0.00 81 1020.1
20260902000015 26 0.0 0.0 0.00 0.00 0.00 80 1020.1
20260901235016 27 0.0 3.2 0.00 0.00 0.00 78 1020.0
20260901234015 27 0.0 3.2 0.00 0.00 0.00 76 1020.1
20260901233015 28 0.0 3.2 0.00 0.00 0.00 75 1020.2
20260901232015 28 0.0 1.6 0.00 0.00 0.00 73 1020.4
20260901231015 28 0.0 1.6 0.00 0.00 0.00 71 1020.5
20260901230015 29 315 1.6 1.6 0.00 0.00 0.00 71 1020.4
20260901225018 30 315 1.6 1.6 0.00 0.00 0.00 69 1020.5
20260901224015 31 315 1.6 1.6 0.00 0.00 0.00 68 1020.7
20260901223017 31 315 1.6 1.6 0.00 0.00 0.00 66 1020.7
20260901222022 31 315 1.6 3.2 0.00 0.00 0.00 65 1020.6
20260901221017 31 315 3.2 3.2 0.00 0.00 0.00 64 1020.6
20260901220017 31 315 1.6 3.2 0.00 0.00 0.00 65 1020.6
20260901215017 31 293 1.6 1.6 0.00 0.00 0.00 66 1020.8
20260901214017 30 315 1.6 1.6 0.00 0.00 0.00 70 1020.6
20260901213017 30 315 1.6 3.2 0.00 0.00 0.00 69 1020.7
20260901212017 32 293 1.6 3.2 0.00 0.00 0.00 64 1020.9
20260901211017 32 248 1.6 3.2 0.00 0.00 0.00 61 1020.9
20260901210017 32 158 1.6 4.8 0.00 0.00 0.00 56 1020.9
20260901205017 32 315 1.6 3.2 0.00 0.00 0.00 58 1021.1
20260901204017 31 315 1.6 3.2 0.00 0.00 0.00 64 1021.1
20260901203017 32 338 1.6 4.8 0.00 0.00 0.00 55 1021.2
20260901202017 33 315 3.2 4.8 0.00 0.00 0.00 54 1021.3
20260901201017 33 293 3.2 6.4 0.00 0.00 0.00 55 1021.3
20260901200017 33 0 4.8 8.0 0.00 0.00 0.00 54 1021.2
20260901195017 33 315 3.2 8.0 0.00 0.00 0.00 55 1021.3
20260901194017 33 0 3.2 6.4 0.00 0.00 0.00 52 1021.4
20260901193017 33 315 1.6 6.4 0.00 0.00 0.00 54 1021.5
20260901192017 32 225 4.8 9.7 0.00 0.00 0.00 55 1021.7
20260901191017 32 293 4.8 8.0 0.00 0.00 0.00 55 1021.7
20260901190017 32 338 4.8 9.7 0.00 0.00 0.00 55 1021.9
20260901185023 32 293 1.6 12.9 0.00 0.00 0.00 55 1021.9
20260901184017 32 0 3.2 9.7 0.00 0.00 0.00 55 1022.0
20260901183017 32 338 3.2 12.9 0.00 0.00 0.00 56 1021.9
20260901182017 32 248 1.6 3.2 0.00 0.00 0.00 58 1022.1
20260901180037 31 0 3.2 8.0 0.00 0.00 0.00 63 1022.3
20260901175057 31 0 1.6 3.2 0.00 0.00 0.00 62 1022.4
20260901174018 31 315 4.8 8.0 0.00 0.00 0.00 61 1022.4
20260901173137 31 338 4.8 8.0 0.00 0.00 0.00 61 1022.6
20260901172017 31 225 1.6 4.8 0.00 0.00 0.00 65 1022.8